www.pogodaiklimat.ru

Погода и климат >> Архив погоды >> Россия >> Якутия >> Тегюльтя


ПОГОДА в Тегюльте

  • Прогноз погоды в Тегюльте
  • Монитор погоды в Тегюльте
  • Климат города

АРХИВ ПОГОДЫ в Тегюльте

Время (UTC), дата Ветер
(напр.,м/с)
 
Видим.   Явления Облачность Т
(С)
Тd
(С)
f
(%)
Тe
(С)
Тes
(С)
Комфортность P
(гПа)
Po
(гПа)
Тmin
(С)
Tmax
(С)
R
(мм)
R24
(мм)
S
(см)
00 14.11 З 1 20 км слабый снег 10/0
[As op]
-15.4 -16.7 90 -18 -18 1031.4 1008.2 -15.7 1 15
03 14.11 З 2 20 км слабый снег 10/0
[As op]
-14.8 -16.8 85 -20 -20 1031.4 1008.2
06 14.11 З 2 20 км слабый снег 10/0
[As op]
-14.8 -16.8 85 -20 -20 1031.4 1008.2
09 14.11 С 1 20 км слабый снег 10/0
[As op]
-15.0 -17.7 80 -18 -18 1030.9 1007.7
12 14.11 С 1 10 км слабый снег 10/0
[As op]
-15.6 -18.3 80 -18 -18 1024.9 1006.4 -14.8 2
15 14.11 С 1 10 км слабый снег 10/0
[As op]
-16.2 -18.1 85 -19 -19 1028.3 1005.1
18 14.11 СЗ 2 10 км слабый снег 10/0
[As op]
-17.0 -18.9 85 -22 -22 1027.1 1003.9
21 14.11 штиль 0 10 км слабый снег 10/0
[As op]
-17.9 -19.8 85 -18 -18 1025.9 1002.7
00 15.11 ЮЗ 1 20 км слабый снег 10/0
[As trans Cs]
-20.8 -22.7 85 -24 -24 1027.3 1003.7 -20.9 4 18
03 15.11 З 2 20 км слабый снег 10/0
[Ac As]
-17.4 -20.8 75 -23 -23 1027.2 1004.0
06 15.11 штиль 0 50 км {снег} 6/0
[Ac trans]
-17.4 -20.8 75 -17 -17 1027.2 1004.0
09 15.11 штиль 0 50 км ясно -26.2 -28.1 84 -26 -26 1028.5 1004.3
12 15.11 штиль 0 50 км ясно -31.6 -33.9 80 -32 -32 опасность
обморожения
1029.4 1004.8 -17.4 0.4
15 15.11 штиль 0 50 км ясно -33.6 -35.9 80 -34 -34 опасность
обморожения
1028.7 1003.9
18 15.11 штиль 0 10 км слабый снег 10/0
[Cs]
-30.7 -33.0 80 -31 -31 опасность
обморожения
1027.3 1002.7
21 15.11 штиль 0 10 км слабый снег 10/0
[Cs]
-31.2 -33.0 84 -31 -31 опасность
обморожения
1026.8 1002.3
00 16.11 штиль 0 50 км {снег} 10/0
[Ci fib]
-34.2 -35.9 84 -34 -34 опасность
обморожения
1025.3 1001.4 -34.9 0.3 19
03 16.11 штиль 0 50 км 10/0
[Cs]
-29.6 -32.0 80 -30 -29 1023.9 999.7
06 16.11 штиль 0 50 км 10/0
[Cs]
-25.9 -28.4 79 -26 -26 1022.4 998.5
09 16.11 штиль 0 50 км 10/0
[Cs]
-27.1 -29.5 80 -27 -27 1022.5 998.5
12 16.11 штиль 0 50 км 10/0
[Cs]
-26.8 -28.7 84 -27 -27 1022.5 998.5 -25.9
15 16.11 штиль 0 20 км слабый снег 10/0
[Cs]
-29.4 -31.1 85 -29 -29 1022.4 998.2
18 16.11 штиль 0 10 км слабый снег 10/0
[Cs]
-26.4 -28.2 85 -26 -26 1022.2 998.2
21 16.11 штиль 0 10 км слабый снег 10/0
[Cs]
-26.8 -28.7 84 -27 -27 1022.2 998.2
00 17.11 З 1 20 км слабый снег 10/0
[Cs]
-26.8 -29.3 79 -31 -31 опасность
обморожения
1024.3 999.4 -29.5 0.4 20
03 17.11 З 2 20 км слабый снег 10/0
[Cs]
-23.1 -25.7 79 -29 -29 1023.1 999.4
06 17.11 ЮЗ 1 20 км слабый снег 10/0
[Cs]
-20.6 -23.1 80 -24 -24 1023.2 999.7
09 17.11 штиль 0 50 км {снег} 10/0
[Cs]
-25.2 -27.1 84 -25 -25 1024.4 1000.5
12 17.11 штиль 0 50 км {снег} 10/0
[Cs]
-26.2 -28.1 84 -26 -26 1026.4 1008.1 -20.6 0.6
15 17.11 штиль 0 10 км слабый снег 10/0
[Cs]
-23.8 -25.6 85 -24 -24 1024.3 1000.6
18 17.11 ЮЗ 2 10 км слабый снег 10/0
[Cs]
-20.8 -22.7 85 -27 -27 1024.2 1000.7
21 17.11 штиль 0 10 км слабый снег 10/0
[Cs]
-20.0 -21.9 85 -20 -20 1023.1 999.8
00 18.11 штиль 0 20 км слабый снег 10/0
[Cs]
-20.1 -22.0 85 -20 -20 1023.0 999.5 -26.3 1 21
03 18.11 ЮЗ 1 20 км слабый снег 10/0
[Cs]
-17.8 -19.7 85 -21 -20 1022.2 999.1
06 18.11 ЮЗ 2 20 км слабый снег 10/0
[As op]
-16.8 -19.4 80 -22 -22 1021.2 998.1
09 18.11 З 3 10 км слабый снег 10/0
[As op]
-18.2 -20.8 80 -25 -25 1021.9 998.6
12 18.11 штиль 0 10 км слабый снег 10/0
[As op]
-19.6 -22.2 80 -20 -20 1022.4 999.1 -16.8 2
15 18.11 штиль 0 10 км слабый снег 10/0
[As op]
-20.5 -23.1 80 -21 -21 1022.0 998.5
18 18.11 штиль 0 10 км слабый снег 10/0
[Cs]
-21.7 -24.2 80 -22 -22 1021.8 998.1
21 18.11 штиль 0 10 км слабый снег 10/0
[Cs]
-25.2 -27.7 80 -25 -25 1022.1 998.2
00 19.11 штиль 0 50 км {снег} 10/0
[Ci fib]
-25.7 -28.3 79 -26 -26 1023.1 999.2 -26.0 0.8 23
03 19.11 штиль 0 50 км 8/0
[Ci fib]
-23.9 -25.7 85 -24 -23 1021.6 997.9
06 19.11 ЮЗ 2 50 км 8/0
[Ci sp]
-22.5 -25.7 75 -29 -29 1022.2 998.5
09 19.11 ЮЗ 1 50 км 10/0
[Ac trans]
-23.1 -26.4 74 -26 -26 1022.5 998.8
12 19.11 штиль 0 50 км 8/0
[Ac trans Cs]
-24.8 -27.3 80 -25 -25 1022.7 998.8 -19.6
15 19.11 штиль 0 50 км 6/0
[Ci fib]
-32.8 -35.1 80 -33 -33 опасность
обморожения
1023.5 998.8
18 19.11 штиль 0 50 км 10/0
[Cs]
-32.2 -34.4 81 -32 -32 опасность
обморожения
1023.3 998.6
21 19.11 штиль 0 10 км слабый снег 10/0
[Cs]
-28.2 -30.7 79 -28 -28 1022.4 998.2
00 20.11 штиль 0 20 км слабый снег 10/0
[Cs]
-29.0 -31.4 80 -29 -29 1021.5 997.4 -32.9 0.3 23
03 20.11 ЮЗ 2 20 км слабый снег 10/0
[Cs]
-26.0 -28.4 80 -33 -32 опасность
обморожения
1021.1 997.4
06 20.11 ЮЗ 1 20 км слабый снег 10/0
[Cs]
-25.2 -28.4 75 -29 -29 1020.2 996.5
09 20.11 штиль 0 10 км слабый снег 10/0
[Cs]
-26.0 -28.4 80 -26 -26 1020.4 996.7
12 20.11 штиль 0 10 км слабый снег 10/0
[Cs]
-26.2 -28.1 84 -26 -26 1020.6 996.7 -25.2 0.8
15 20.11 штиль 0 10 км слабый снег 10/0
[Cs]
-27.2 -29.2 83 -27 -27 1020.6 996.6
18 20.11 штиль 0 10 км слабый снег 10/0
[Cs]
-28.2 -30.0 84 -28 -28 1020.6 996.4

 

Местоположение метеостанции Тегюльтя (Якутия, Россия): широта 60.47 долгота 130.00 высота над уровнем моря 171 м.

В архиве по умолчанию представлена погода в Тегюльте за последнюю неделю. Архивные данные за месяц целиком и за предыдущие месяцы, начиная с января 2011 года, Вы можете получить, выбрав интересующий диапазон дат из раскрывающегося списка и нажав кнопку "Ввод!".


*Определитесь, кто Вы:
робот инопланетянин человек

Внимание! Время в таблицах - всемирное. Для получения местного времени необходимо прибавить поправку, которая в Тегюльте равна 9 ч.

Смотрите также архив погоды в соседних городах и на ближайших метеорологических станциях:

Погода в Амге (Якутия, Россия) (114 км)
Погода в Покровске (Якутия, Россия) (122 км)
Погода в Якутске (Якутия, Россия) (172 км)
Погода в Буяге (Якутия, Россия) (189 км)
Погода в Усть-Миле (Якутия, Россия) (191 км)
Погода в Учуре (Якутия, Россия) (196 км)
Погода в Угино (Якутия, Россия) (221 км)
Погода в Чурапче (Якутия, Россия) (222 км)
Погода в Усть-Мае (Якутия, Россия) (242 км)
Погода в Намцах (Якутия, Россия) (251 км)

Пояснения к столбцам:

Ветер - указаны скорость ветра в м/с - средняя за 10 мин, порывы в срок и между сроками (в фигурных скобках) и направление, откуда дует ветер: С - северный, СВ - северо-восточный, В - восточный, ЮВ - юго-восточный, Ю - южный, ЮЗ - юго-западный, З - западный, СЗ - северо-западный.
Видимость - горизонтальная дальность видимости в метрах или километрах. При видимости от 1 до 10 км при отсутствии осадков обычно наблюдается дымка, при ухудшении видимости до 1 км и менее - туман. В сухую погоду видимость может ухудшаться дымом, пылью или мглою.
Явления - указаны атмосферные явления, наблюдавшиеся в срок или в последний час перед сроком; фигурными скобками обозначены явления, наблюдавшиеся между сроками (за 1-3 часа до срока); квадратными скобками обозначены град или гололедные отложения с указанием их диаметра в мм.
Облачность - указаны через наклонную черту общая и нижняя облачность в баллах и высота нижней границы облаков в метрах; квадратными скобками обозначены формы облаков: Ci - перистые, Cs - перисто-слоистые, Cc - перисто-кучевые, Ac - высококучевые, As - высокослоистые, Sc - слоисто-кучевые, Ns - слоисто-дождевые, Cu - кучевые, Cb - кучево-дождевые. Подробнее классификацию облаков см. в Атласе облаков (PDF).
T - Температура воздуха - температура, измеренная на высоте 2 м над землей.
Td - Температура точки росы - температура, при понижении до которой содержащийся в воздухе водяной пар достигнет насыщения.
f - Относительная влажность воздуха - влажноcть воздуха, измеренная на высоте 2 м над землей.
Te - Эффективная температура - температура, которую ощущает одетый по сезону человек в тени. Характеристика душности погоды. При расчете учитывается влияние влажности воздуха и скорости ветра на теплоощущения человека.
Tes - Эффективная температура на солнце - температура, которую ощущает человек, с поправкой на солнечный нагрев. Характеристика знойности погоды. Зависит от высоты солнца над горизонтом, облачности и скорости ветра. Ночью, в пасмурную погоду, а также при ветре 12 м/с и более поправка равна нулю.
P - Атмосферное давление - приведенное к уровню моря атмосферное давление.
Po - Атмосферное давление - измеренное на уровне метеостанции атмосферное давление.
Tmin - Минимальная температура - минимум температуры воздуха на высоте 2 м над землей.
Tmax - Максимальная температура - максимум температуры воздуха на высоте 2 м над землей.
R - Количество осадков - Количество выпавших осадков за период времени, мм. При наведении курсора мыши на число - период времени, за который выпало указанное количество осадков.
R24 - Количество осадков - Количество выпавших осадков за 24 часа, мм.
S - Снежный покров - Высота снежного покрова, см. При наведении курсора мыши на число - состояние снежного покрова и степень покрытия местности в баллах.